Rensselaer, IN

4:33 AM CST on December 09, 2016 (GMT -0600)
Jasper County

Weather History for KRZL - March, 2013

Change the Weather History Date:

Sunday, March 3, 2013

  Actual Average (KIKK) Record (KIKK)
Temperature  
Mean Temperature 25 °F -  
Max Temperature 33 °F 45 °F 70 °F (1974)
Min Temperature 17 °F 25 °F 0 °F (2014)
Degree Days  
Heating Degree Days 40    
Moisture  
Dew Point 19 °F    
Average Humidity 74    
Maximum Humidity 93    
Minimum Humidity 48    
Precipitation  
Precipitation 0.00 in - - ()
Sea Level Pressure  
Sea Level Pressure 30.10 in    
Wind  
Wind Speed 6 mph (WNW)    
Max Wind Speed 10 mph    
Max Gust Speed -    
Visibility 10 miles    
Events      
Averages and records for this station are not official NWS values.
T = Trace of Precipitation, MM = Missing Value Source: NWS Daily Summary

Daily Weather History Graph

Daily Weather History Graph

Search for Another Location

Airport or City:

Trip Planner

Search our weather history database for the weather conditions in past years. The results will help you decide how hot, cold, wet, or windy it might be!

Date:

Astronomy

Mar. 03, 2013 Rise Set
Actual Time 6:19 AM CST 5:42 PM CST
Civil Twilight 5:51 AM CST 6:09 PM CST
Nautical Twilight 5:20 AM CST 6:41 PM CST
Astronomical Twilight 4:48 AM CST 7:13 PM CST
Moon No Moon Rise 9:31 AM CST (3/3)
Length of Visible Light 12h 18m
Length of Day
11h 23m
Waning Gibbous, 63% of the Moon is Illuminated
Mar 3
Waning Gibbous
Mar 4
Last Quarter
Mar 11
New
Mar 19
First Quarter
Mar 27
Full

Hourly Weather History & Observations

Time (CST) Temp. Windchill Dew Point Humidity Pressure Visibility Wind Dir Wind Speed Gust Speed Precip Events Conditions
12:15 AM 26.6 °F 19.1 °F 21.2 °F 80% 30.13 in 10.0 mi West 6.9 mph - N/A   Overcast
12:35 AM 24.8 °F 16.1 °F 21.2 °F 86% 30.13 in 10.0 mi West 8.1 mph - N/A   Overcast
12:55 AM 24.8 °F - 19.4 °F 80% 30.12 in 10.0 mi Calm Calm - N/A   Overcast
1:15 AM 23.0 °F 15.8 °F 19.4 °F 86% 30.12 in 10.0 mi WNW 5.8 mph - N/A   Overcast
1:35 AM 23.0 °F 15.8 °F 19.4 °F 86% 30.12 in 10.0 mi West 5.8 mph - N/A   Scattered Clouds
1:55 AM 21.2 °F 13.6 °F 17.6 °F 86% 30.12 in 10.0 mi WNW 5.8 mph - N/A   Clear
2:15 AM 21.2 °F 13.6 °F 17.6 °F 86% 30.11 in 10.0 mi West 5.8 mph - N/A   Clear
2:35 AM 19.4 °F 12.8 °F 17.6 °F 93% 30.11 in 10.0 mi NW 4.6 mph - N/A   Clear
2:55 AM 19.4 °F 11.5 °F 17.6 °F 93% 30.11 in 10.0 mi NW 5.8 mph - N/A   Clear
3:15 AM 19.4 °F 12.8 °F 17.6 °F 93% 30.10 in 10.0 mi NW 4.6 mph - N/A   Clear
3:35 AM 19.4 °F 12.8 °F 17.6 °F 93% 30.10 in 10.0 mi WNW 4.6 mph - N/A   Clear
3:55 AM 19.4 °F 11.5 °F 17.6 °F 93% 30.11 in 10.0 mi WNW 5.8 mph - N/A   Clear
4:15 AM 19.4 °F 12.8 °F 17.6 °F 93% 30.11 in 10.0 mi West 4.6 mph - N/A   Scattered Clouds
4:35 AM 19.4 °F 11.5 °F 17.6 °F 93% 30.11 in 10.0 mi WNW 5.8 mph - N/A   Mostly Cloudy
4:55 AM 19.4 °F 12.8 °F 17.6 °F 93% 30.11 in 10.0 mi West 4.6 mph - N/A   Mostly Cloudy
5:15 AM 19.4 °F 12.8 °F 15.8 °F 86% 30.11 in 10.0 mi West 4.6 mph - N/A   Scattered Clouds
5:35 AM 17.6 °F 12.3 °F 15.8 °F 93% 30.11 in 10.0 mi West 3.5 mph - N/A   Clear
5:55 AM 17.6 °F 12.3 °F 14.0 °F 86% 30.12 in 10.0 mi West 3.5 mph - N/A   Clear
6:15 AM 17.6 °F 10.7 °F 15.8 °F 93% 30.12 in 10.0 mi West 4.6 mph - N/A   Scattered Clouds
6:35 AM 17.6 °F 10.7 °F 15.8 °F 93% 30.13 in 10.0 mi West 4.6 mph - N/A   Mostly Cloudy
6:55 AM 19.4 °F 11.5 °F 17.6 °F 93% 30.13 in 10.0 mi West 5.8 mph - N/A   Clear
7:15 AM 19.4 °F 10.4 °F 17.6 °F 93% 30.14 in 10.0 mi West 6.9 mph - N/A   Clear
7:35 AM 21.2 °F 11.7 °F 17.6 °F 86% 30.14 in 10.0 mi West 8.1 mph - N/A   Clear
7:55 AM 21.2 °F 12.6 °F 17.6 °F 86% 30.13 in 10.0 mi West 6.9 mph - N/A   Clear
8:15 AM 23.0 °F 13.1 °F 19.4 °F 86% 30.13 in 10.0 mi West 9.2 mph - N/A   Clear
8:35 AM 24.8 °F 16.1 °F 19.4 °F 80% 30.13 in 10.0 mi West 8.1 mph - N/A   Clear
8:55 AM 26.6 °F 19.1 °F 19.4 °F 74% 30.13 in 10.0 mi West 6.9 mph - N/A   Clear
9:15 AM 28.4 °F 21.2 °F 21.2 °F 74% 30.13 in 10.0 mi NW 6.9 mph - N/A   Clear
9:35 AM 28.4 °F 22.2 °F 21.2 °F 74% 30.12 in 10.0 mi NW 5.8 mph - N/A   Clear
9:55 AM 30.2 °F 24.3 °F 21.2 °F 69% 30.12 in 10.0 mi NNW 5.8 mph - N/A   Clear
10:15 AM 32.0 °F 25.6 °F 23.0 °F 69% 30.11 in 10.0 mi NW 6.9 mph - N/A   Clear
10:35 AM 32.0 °F 24.8 °F 21.2 °F 64% 30.11 in 10.0 mi NW 8.1 mph - N/A   Clear
10:55 AM 32.0 °F 24.2 °F 21.2 °F 64% 30.11 in 10.0 mi NW 9.2 mph - N/A   Clear
11:15 AM 32.0 °F 24.8 °F 21.2 °F 64% 30.11 in 10.0 mi NW 8.1 mph - N/A   Clear
11:35 AM 32.0 °F 25.6 °F 21.2 °F 64% 30.11 in 10.0 mi West 6.9 mph - N/A   Clear
11:55 AM 32.0 °F 26.4 °F 17.6 °F 55% 30.10 in 10.0 mi West 5.8 mph - N/A   Clear
12:15 PM 32.0 °F 26.4 °F 17.6 °F 55% 30.10 in 10.0 mi West 5.8 mph - N/A   Scattered Clouds
12:35 PM 32.0 °F 24.8 °F 17.6 °F 55% 30.09 in 10.0 mi West 8.1 mph - N/A   Mostly Cloudy
12:55 PM 33.8 °F 27.0 °F 19.4 °F 56% 30.08 in 10.0 mi NW 8.1 mph - N/A   Scattered Clouds
1:15 PM 33.8 °F 26.4 °F 17.6 °F 52% 30.08 in 10.0 mi West 9.2 mph - N/A   Scattered Clouds
1:35 PM 33.8 °F 29.6 °F 15.8 °F 48% 30.07 in 10.0 mi NW 4.6 mph - N/A   Scattered Clouds
1:55 PM 33.8 °F 27.7 °F 15.8 °F 48% 30.07 in 10.0 mi WNW 6.9 mph - N/A   Scattered Clouds
2:15 PM 33.8 °F 27.0 °F 17.6 °F 52% 30.07 in 10.0 mi West 8.1 mph - N/A   Scattered Clouds
2:35 PM 33.8 °F 27.0 °F 17.6 °F 52% 30.07 in 10.0 mi NNW 8.1 mph - N/A   Scattered Clouds
2:55 PM 33.8 °F 27.7 °F 17.6 °F 52% 30.06 in 10.0 mi West 6.9 mph - N/A   Clear
3:35 PM 33.8 °F 28.6 °F 17.6 °F 52% 30.07 in 10.0 mi West 5.8 mph - N/A   Scattered Clouds
3:55 PM 33.8 °F 28.6 °F 15.8 °F 48% 30.07 in 10.0 mi West 5.8 mph - N/A   Clear
4:15 PM 33.8 °F 25.8 °F 17.6 °F 52% 30.07 in 10.0 mi West 10.4 mph - N/A   Scattered Clouds
4:35 PM 32.0 °F 24.2 °F 15.8 °F 51% 30.07 in 10.0 mi West 9.2 mph - N/A   Scattered Clouds
4:55 PM 32.0 °F 25.6 °F 17.6 °F 55% 30.07 in 10.0 mi West 6.9 mph - N/A   Clear
5:15 PM 32.0 °F 24.8 °F 17.6 °F 55% 30.07 in 10.0 mi West 8.1 mph - N/A   Clear
5:35 PM 32.0 °F 25.6 °F 17.6 °F 55% 30.07 in 10.0 mi West 6.9 mph - N/A   Clear
5:55 PM 30.2 °F 25.4 °F 17.6 °F 60% 30.08 in 10.0 mi West 4.6 mph - N/A   Scattered Clouds
6:15 PM 30.2 °F 25.4 °F 19.4 °F 64% 30.08 in 10.0 mi WSW 4.6 mph - N/A   Clear
6:35 PM 30.2 °F 25.4 °F 21.2 °F 69% 30.08 in 10.0 mi West 4.6 mph - N/A   Scattered Clouds
6:55 PM 30.2 °F 25.4 °F 21.2 °F 69% 30.08 in 10.0 mi West 4.6 mph - N/A   Clear
7:15 PM 28.4 °F 24.6 °F 21.2 °F 74% 30.09 in 10.0 mi West 3.5 mph - N/A   Clear
7:35 PM 30.2 °F - 21.2 °F 69% 30.09 in 10.0 mi Calm Calm - N/A   Scattered Clouds
7:55 PM 28.4 °F 24.6 °F 19.4 °F 69% 30.09 in 10.0 mi NNW 3.5 mph - N/A   Scattered Clouds
8:15 PM 28.4 °F 23.3 °F 19.4 °F 69% 30.09 in 10.0 mi North 4.6 mph - N/A   Scattered Clouds
8:35 PM 26.6 °F 20.0 °F 19.4 °F 74% 30.09 in 10.0 mi NE 5.8 mph - N/A   Scattered Clouds
8:55 PM 26.6 °F 19.1 °F 19.4 °F 74% 30.09 in 10.0 mi NNE 6.9 mph - N/A   Clear
9:15 PM 26.6 °F 21.2 °F 19.4 °F 74% 30.10 in 10.0 mi NNE 4.6 mph - N/A   Clear
9:35 PM 26.6 °F 20.0 °F 19.4 °F 74% 30.10 in 10.0 mi NNE 5.8 mph - N/A   Clear
9:55 PM 24.8 °F 19.1 °F 21.2 °F 86% 30.10 in 10.0 mi NE 4.6 mph - N/A   Scattered Clouds
10:15 PM 24.8 °F 19.1 °F 19.4 °F 80% 30.10 in 10.0 mi NE 4.6 mph - N/A   Clear
10:35 PM 24.8 °F - 21.2 °F 86% 30.11 in 10.0 mi Calm Calm - N/A   Scattered Clouds
10:55 PM 24.8 °F - 21.2 °F 86% 30.11 in 10.0 mi Calm Calm - N/A   Scattered Clouds
11:15 PM 24.8 °F - 21.2 °F 86% 30.11 in 10.0 mi Calm Calm - N/A   Clear
11:35 PM 24.8 °F - 21.2 °F 86% 30.11 in 10.0 mi Calm Calm - N/A   Scattered Clouds
11:55 PM 24.8 °F 20.5 °F 21.2 °F 86% 30.11 in 10.0 mi NE 3.5 mph - N/A   Clear